GW2946 Weather Reports


time (UTC)temp
C
wind
direction
speed
KPH
gust
KPH
rain 1hr
cm
rain 24hr
cm
rain mn
cm
humidity
%
barometer
mb
20260506224225 13 5 12.9 14.5 0.00 0.97 0.97 59 1013.9
20260506223721 13 0 11.3 12.9 0.00 0.97 0.97 58 1013.8
20260506223216 13 354 11.3 12.9 0.00 0.97 0.97 60 1014.0
20260506222713 13 10 12.9 14.5 0.00 0.97 0.97 57 1014.0
20260506222208 13 4 9.7 12.9 0.00 0.97 0.97 60 1014.1
20260506221707 13 349 8.0 11.3 0.00 0.97 0.97 60 1014.0
20260506221205 13 343 17.7 22.5 0.00 0.97 0.97 60 1013.8
20260506220702 13 5 19.3 24.1 0.00 0.97 0.97 58 1013.6
20260506220156 13 357 14.5 14.5 0.00 0.97 0.97 59 1013.5
20260506215653 13 356 17.7 20.9 0.00 0.97 0.97 59 1013.2
20260506215148 13 5 17.7 20.9 0.00 0.97 0.97 60 1013.3
20260506214646 13 345 12.9 14.5 0.00 0.97 0.97 63 1013.0
20260506214143 13 3 16.1 17.7 0.00 0.97 0.97 61 1013.1
20260506213641 13 2 9.7 11.3 0.00 0.97 0.97 62 1012.9
20260506213138 13 332 14.5 17.7 0.00 0.97 0.97 64 1012.6
20260506212636 13 338 16.1 16.1 0.00 0.97 0.97 62 1012.9
20260506212130 14 353 14.5 17.7 0.00 0.97 0.97 55 1012.7
20260506211626 14 356 14.5 16.1 0.00 0.97 0.97 59 1012.9
20260506211123 14 344 17.7 22.5 0.00 0.97 0.97 56 1012.6
20260506210620 15 340 16.1 17.7 0.00 0.97 0.97 60 1012.6
20260506210116 14 334 12.9 14.5 0.00 0.97 0.97 57 1012.6
20260506205613 14 351 9.7 11.3 0.00 0.97 0.97 56 1012.6
20260506205108 15 329 12.9 14.5 0.00 0.97 0.97 57 1012.5
20260506204607 15 332 14.5 16.1 0.00 0.97 0.97 57 1012.6
20260506204103 15 339 8.0 11.3 0.00 0.97 0.97 59 1012.7
20260506203602 15 358 9.7 11.3 0.00 0.97 0.97 58 1012.7
20260506203058 15 2 8.0 9.7 0.00 0.97 0.97 58 1012.4
20260506202556 15 332 12.9 12.9 0.00 0.97 0.97 56 1012.6
20260506202052 15 339 9.7 12.9 0.00 0.97 0.97 57 1012.6
20260506201549 15 346 8.0 9.7 0.00 0.97 0.97 57 1012.6
20260506201046 15 331 8.0 11.3 0.00 0.97 0.97 57 1012.7
20260506200542 15 358 4.8 6.4 0.00 0.97 0.97 56 1012.7
20260506200039 15 14 4.8 9.7 0.00 0.97 0.97 52 1012.8
20260506195535 15 333 16.1 17.7 0.00 0.97 0.97 52 1012.5
20260506195032 15 0 11.3 12.9 0.00 0.97 0.97 56 1012.6
20260506194530 15 323 1.6 3.2 0.00 0.97 0.97 57 1012.6
20260506194026 15 352 12.9 14.5 0.00 0.97 0.97 56 1012.7
20260506193523 15 321 12.9 14.5 0.00 0.97 0.97 60 1012.4
20260506193020 15 346 11.3 14.5 0.00 0.97 0.97 60 1012.5
20260506192517 15 326 6.4 6.4 0.00 0.97 0.97 54 1012.3
20260506192013 15 1 16.1 20.9 0.00 0.97 0.97 55 1012.4
20260506191510 15 315 8.0 9.7 0.00 0.97 0.97 54 1012.5
20260506191006 15 317 8.0 9.7 0.00 0.97 0.97 59 1012.6
20260506190503 15 8 6.4 9.7 0.00 0.97 0.97 58 1012.6
20260506190000 15 7 19.3 22.5 0.00 0.97 0.97 55 1012.4
20260506185458 14 333 8.0 11.3 0.00 0.97 0.97 56 1012.5
20260506184954 15 336 12.9 14.5 0.00 0.97 0.97 59 1012.7
20260506184451 15 355 14.5 16.1 0.00 0.97 0.97 55 1012.5
20260506183948 15 18 8.0 12.9 0.00 0.97 0.97 58 1012.7
20260506183444 15 340 12.9 12.9 0.00 0.97 0.97 55 1012.7
20260506182941 15 356 11.3 12.9 0.00 0.97 0.97 59 1012.5
20260506182438 15 338 9.7 11.3 0.00 0.97 0.97 52 1012.7
20260506181935 15 328 14.5 16.1 0.00 0.97 0.97 59 1012.7
20260506181433 14 56 11.3 14.5 0.00 0.97 0.97 56 1012.6
20260506180930 14 354 16.1 17.7 0.00 0.97 0.97 59 1012.8
20260506180426 14 355 14.5 20.9 0.00 0.97 0.97 60 1012.8
20260506175923 15 30 11.3 14.5 0.00 0.97 0.97 56 1012.9
20260506175420 14 354 14.5 20.9 0.00 0.97 0.97 62 1013.0
20260506174917 14 355 12.9 16.1 0.00 0.97 0.97 58 1012.9
20260506174414 14 17 9.7 12.9 0.00 0.97 0.97 60 1012.9
20260506173911 14 8 9.7 17.7 0.00 0.97 0.97 62 1012.6
20260506173408 13 357 16.1 17.7 0.00 0.97 0.97 62 1013.0
20260506172905 13 331 19.3 22.5 0.00 0.97 0.97 63 1012.8
20260506172402 13 348 14.5 14.5 0.00 0.97 0.97 63 1012.8
20260506171859 13 5 12.9 16.1 0.00 0.97 0.97 66 1012.9
20260506171356 13 4 16.1 17.7 0.00 0.97 0.97 62 1012.9
20260506170854 13 358 19.3 25.7 0.00 0.97 0.97 62 1012.6
20260506170349 13 56 9.7 12.9 0.00 0.97 0.97 63 1012.6
20260506165843 13 15 6.4 11.3 0.00 0.97 0.97 62 1012.8
20260506165341 13 343 12.9 14.5 0.00 0.97 0.97 67 1013.0
20260506164837 13 351 17.7 20.9 0.00 0.97 0.97 65 1013.0
20260506164334 13 22 14.5 20.9 0.00 0.97 0.97 70 1012.9
20260506163831 13 359 12.9 14.5 0.00 0.97 0.97 72 1012.8
20260506163325 13 356 14.5 14.5 0.00 0.97 0.97 73 1013.0
20260506162821 13 356 12.9 14.5 0.00 0.97 0.97 68 1013.1
20260506162319 12 357 11.3 16.1 0.00 0.97 0.97 75 1013.0
20260506161811 12 9 11.3 14.5 0.00 0.97 0.97 73 1012.6
20260506161308 12 346 16.1 16.1 0.00 0.97 0.97 78 1012.6
20260506160805 12 318 9.7 11.3 0.00 0.97 0.97 78 1012.5
20260506160302 12 334 12.9 14.5 0.00 0.97 0.97 76 1012.3
20260506155800 12 48 3.2 4.8 0.00 0.97 0.97 76 1012.6
20260506155256 12 356 11.3 14.5 0.00 0.97 0.97 75 1012.6
20260506153404 11 1 11.3 12.9 0.00 0.97 0.97 80 1012.3
20260506152901 11 353 9.7 11.3 0.00 0.97 0.97 87 1012.1
20260506152358 11 340 8.0 9.7 0.00 0.97 0.97 87 1012.1
20260506151857 11 347 12.9 14.5 0.00 0.97 0.97 88 1012.4
20260506151353 11 345 12.9 14.5 0.00 0.97 0.97 86 1012.2
20260506150851 11 330 9.7 12.9 0.00 0.97 0.97 88 1012.2
20260506150347 11 323 14.5 16.1 0.00 0.97 0.97 89 1012.2
20260506145844 10 3 14.5 17.7 0.00 0.97 0.97 88 1012.3
20260506145340 10 0 14.5 17.7 0.00 0.97 0.97 89 1012.1
20260506144838 10 351 14.5 16.1 0.00 0.97 0.97 90 1011.7
20260506144334 10 333 12.9 14.5 0.00 0.97 0.97 90 1012.0
20260506143833 10 327 9.7 11.3 0.00 0.97 0.97 91 1011.7
20260506143329 10 348 8.0 9.7 0.00 0.97 0.97 90 1011.7
20260506142828 10 6 9.7 11.3 0.00 0.97 0.97 90 1011.5
20260506142325 10 347 12.9 14.5 0.00 0.97 0.97 92 1011.8
20260506141823 10 330 14.5 16.1 0.00 0.97 0.97 89 1011.5
20260506141321 10 352 9.7 12.9 0.00 0.97 0.97 88 1011.6
20260506140819 10 10 12.9 14.5 0.00 0.97 0.97 89 1011.4
20260506140316 10 352 9.7 11.3 0.00 0.97 0.97 90 1011.3
20260506135813 10 347 6.4 6.4 0.00 0.97 0.97 91 1011.3
20260506135309 10 356 8.0 9.7 0.00 0.97 0.97 91 1011.2
20260506134805 10 2 11.3 12.9 0.00 0.97 0.97 91 1011.3
20260506134302 10 346 12.9 12.9 0.00 0.97 0.97 91 1010.8
20260506133759 10 357 12.9 14.5 0.00 0.97 0.97 92 1010.8
20260506133256 9 54 6.4 9.7 0.00 0.97 0.97 93 1011.0
20260506132753 9 355 8.0 9.7 0.00 0.97 0.97 94 1010.9
20260506132250 9 49 4.8 6.4 0.00 0.97 0.97 96 1010.7
20260506131748 9 37 6.4 9.7 0.00 0.97 0.97 97 1010.6
20260506131243 9 0 8.0 11.3 0.00 0.97 0.97 98 1010.8
20260506130740 8 39 8.0 11.3 0.00 0.97 0.97 98 1010.8
20260506130237 8 0 9.7 12.9 0.00 0.97 0.97 99 1010.9
20260506125736 8 16 11.3 12.9 0.00 0.97 0.97 99 1010.7
20260506125233 8 34 6.4 9.7 0.00 0.97 0.97 99 1010.6
20260506124731 8 14 6.4 9.7 0.00 0.97 0.97 99 1010.6
20260506124229 8 33 6.4 6.4 0.00 0.97 0.97 99 1010.5
20260506123726 8 339 9.7 11.3 0.00 0.97 0.97 99 1010.4
20260506123225 8 6 8.0 9.7 0.00 0.97 0.97 99 1010.2
20260506122721 8 9 6.4 9.7 0.00 0.97 0.97 99 1010.2
20260506122218 7 7 8.0 9.7 0.00 0.97 0.97 99 1010.2
20260506121716 8 51 11.3 12.9 0.00 0.97 0.97 99 1009.7
20260506121212 7 3 9.7 11.3 0.00 0.97 0.97 99 1009.9
20260506120710 8 5 6.4 14.5 0.00 0.97 0.97 99 1010.1
20260506120208 7 41 8.0 11.3 0.00 0.97 0.97 99 1010.5
20260506115706 7 5 11.3 12.9 0.00 0.97 0.97 99 1010.3
20260506115204 7 55 11.3 16.1 0.00 0.97 0.97 99 1009.8
20260506114701 7 7 17.7 20.9 0.00 0.97 0.97 99 1009.9
20260506114158 8 358 12.9 14.5 0.18 0.97 0.97 99 1009.8
20260506113657 8 0 6.4 9.7 0.18 0.97 0.97 99 1009.6
20260506113154 8 357 6.4 6.4 0.00 0.94 0.94 99 1009.1
20260506112649 8 43 6.4 9.7 0.00 0.94 0.94 99 1009.0
20260506112148 8 4 9.7 11.3 0.00 0.94 0.94 99 1009.1
20260506111645 8 55 9.7 11.3 0.00 0.94 0.94 99 1008.8
20260506111143 8 340 3.2 4.8 0.00 0.94 0.94 99 1008.7
20260506110640 8 15 6.4 9.7 0.00 0.94 0.94 99 1008.9
20260506110137 8 359 6.4 6.4 0.00 0.94 0.94 99 1008.5
20260506105633 8 349 4.8 6.4 0.00 0.94 0.94 99 1008.3
20260506105130 8 80 9.7 12.9 0.00 0.94 0.94 99 1008.4
20260506104629 8 1 3.2 4.8 0.00 0.94 0.94 99 1008.4
20260506104126 8 347 4.8 6.4 0.00 0.94 0.94 99 1008.6
20260506103623 8 19 3.2 3.2 0.00 0.94 0.94 99 1008.6
20260506103120 8 356 8.0 9.7 0.00 0.94 0.94 99 1008.7
20260506102618 8 353 9.7 11.3 0.00 0.94 0.94 99 1008.5
20260506102115 8 342 4.8 6.4 0.00 0.94 0.94 99 1008.0
20260506101612 8 338 6.4 6.4 0.00 0.94 0.94 99 1007.9
20260506101108 8 14 6.4 9.7 0.00 0.94 0.94 99 1007.6
20260506100607 8 331 6.4 6.4 0.00 0.94 0.94 99 1007.5
20260506100105 8 11 8.0 9.7 0.00 0.94 0.94 99 1007.4
20260506095604 8 348 4.8 4.8 0.00 0.94 0.94 99 1007.6
20260506095100 8 2 12.9 14.5 0.00 0.94 0.94 99 1007.4
20260506094557 8 337 12.9 14.5 0.00 0.94 0.94 99 1007.2
20260506094055 8 350 9.7 12.9 0.00 0.94 0.94 99 1007.5
20260506093553 8 358 8.0 9.7 0.00 0.94 0.94 99 1007.6
20260506093051 8 339 12.9 14.5 0.00 0.94 0.94 99 1007.5
20260506092548 8 352 14.5 14.5 0.00 0.94 0.94 99 1007.7
20260506092045 8 349 9.7 12.9 0.00 0.94 0.94 99 1007.6
20260506091543 8 5 11.3 14.5 0.13 0.94 0.94 99 1007.2
20260506091040 8 1 12.9 14.5 0.13 0.94 0.94 99 1007.3
20260506090538 8 357 11.3 14.5 0.00 0.91 0.91 99 1007.2
20260506090034 8 1 14.5 16.1 0.18 0.91 0.91 99 1006.9
20260506085531 8 4 8.0 12.9 0.48 0.91 0.91 99 1007.2
20260506085027 8 348 9.7 12.9 0.43 0.89 0.89 99 1007.4
20260506084525 9 352 9.7 12.9 0.48 0.86 0.86 99 1007.2
20260506084020 9 350 12.9 12.9 0.18 0.81 0.81 99 1007.4
20260506083518 9 346 12.9 14.5 0.00 0.79 0.79 99 1007.6
20260506083015 9 344 8.0 9.7 0.00 0.79 0.79 99 1007.3
20260506082512 9 344 12.9 14.5 0.00 0.79 0.79 99 1007.3
20260506082007 9 6 12.9 14.5 0.00 0.79 0.79 99 1007.3
20260506081506 10 324 8.0 9.7 0.13 0.79 0.79 99 1007.3
20260506081003 10 335 8.0 9.7 0.13 0.79 0.79 99 1007.1
20260506080500 10 349 8.0 9.7 0.18 0.76 0.76 99 1007.0
20260506073444 10 342 9.7 11.3 0.00 0.69 0.69 99 1006.6
20260506072941 10 359 14.5 14.5 0.18 0.69 0.69 99 1006.6
20260506072438 10 332 11.3 12.9 0.18 0.69 0.69 99 1006.6
20260506071936 10 354 17.7 22.5 0.13 0.66 0.66 99 1006.8
20260506071433 11 339 12.9 14.5 0.30 0.66 0.66 99 1006.5
20260506070930 11 336 14.5 17.7 0.30 0.64 0.64 99 1006.5
20260506070427 11 306 27.4 35.4 0.30 0.61 0.61 99 1006.4
20260506062405 13 199 4.8 4.8 0.18 0.36 0.36 99 1006.7
20260506061900 13 204 6.4 6.4 0.13 0.33 0.33 99 1006.6
20260506061357 13 185 4.8 4.8 0.30 0.33 0.33 99 1006.7
20260506060855 13 193 6.4 6.4 0.48 0.30 0.30 99 1006.6
20260506060353 13 199 6.4 6.4 0.30 0.28 0.28 99 1006.8
20260506051325 13 192 3.2 3.2 0.00 0.03 0.03 99 1007.4
20260506050823 14 176 3.2 3.2 0.00 0.03 0.03 99 1007.2
20260506050320 13 171 3.2 3.2 0.00 0.03 0.03 99 1007.3
20260506044810 14 220 1.6 3.2 0.00 0.00 0.00 99 1007.5
20260506044308 14 194 1.6 3.2 0.00 0.00 0.00 99 1007.6
20260506043805 14 171 3.2 3.2 0.00 0.00 0.00 99 1007.6
20260506043302 14 196 3.2 3.2 0.00 0.00 0.00 99 1007.6
20260506042801 14 169 3.2 3.2 0.00 0.00 0.00 99 1007.7
20260506042259 14 176 3.2 3.2 0.00 0.00 0.00 99 1007.5
20260506041757 14 254 0.0 0.0 0.00 0.00 0.00 99 1007.6
20260506041254 14 150 0.0 0.0 0.00 0.00 0.00 99 1007.6
20260506040751 14 344 0.0 0.0 0.00 0.00 0.00 99 1007.5
20260506040248 14 242 0.0 0.0 0.00 0.00 0.00 99 1007.9
20260506035745 14 182 1.6 1.6 0.13 0.66 0.66 99 1007.9
20260506035242 14 215 1.6 3.2 0.13 0.66 0.66 99 1008.3
20260506034739 14 243 1.6 1.6 0.18 0.64 0.64 99 1008.4
20260506034236 14 261 0.0 0.0 0.30 0.64 0.64 99 1008.3
20260506033733 14 262 0.0 0.0 0.61 0.61 0.61 99 1008.5
20260506033230 14 241 0.0 0.0 0.79 0.58 0.58 99 1008.8
20260506032727 14 241 0.0 0.0 0.48 0.51 0.51 99 1008.7
20260506032224 14 253 1.6 3.2 0.18 0.46 0.46 99 1008.8
20260506031720 14 274 1.6 3.2 0.13 0.43 0.43 99 1008.9
20260506031218 14 275 0.0 0.0 0.13 0.43 0.43 99 1008.8
20260506030716 14 275 0.0 0.0 0.18 0.41 0.41 99 1008.9
20260506030213 15 275 0.0 0.0 0.18 0.41 0.41 99 1008.7
20260506025710 15 275 0.0 0.0 0.13 0.38 0.38 99 1008.8
20260506025206 15 297 0.0 0.0 0.30 0.38 0.38 99 1008.9
20260506024703 15 297 0.0 0.0 0.30 0.36 0.36 99 1008.8
20260506024159 15 322 0.0 0.0 0.30 0.33 0.33 99 1008.6
20260506023656 15 322 0.0 0.0 0.30 0.30 0.30 99 1008.6
20260506023153 15 322 3.2 3.2 0.30 0.28 0.28 99 1008.8
20260506022650 15 344 3.2 3.2 0.18 0.25 0.25 99 1008.7
20260506022148 15 328 4.8 4.8 0.13 0.23 0.23 99 1008.9
20260506021646 15 353 0.0 0.0 0.13 0.23 0.23 99 1008.5
20260506021143 15 353 0.0 0.0 0.18 0.20 0.20 99 1008.5
20260506020640 15 343 0.0 0.0 0.18 0.20 0.20 98 1008.4
20260506020137 15 341 0.0 0.0 0.00 0.18 0.18 98 1008.6
20260506015635 15 319 0.0 0.0 0.13 0.18 0.18 98 1008.3
20260506015131 15 319 0.0 0.0 0.13 0.18 0.18 98 1008.3
20260506014629 15 319 1.6 1.6 0.18 0.15 0.15 97 1008.2
20260506014124 15 279 0.0 0.0 0.18 0.15 0.15 97 1008.2
20260506013623 15 208 0.0 0.0 0.18 0.13 0.13 97 1008.3
20260506013119 15 207 0.0 0.0 0.18 0.13 0.13 97 1008.3
20260506012615 15 207 0.0 0.0 0.00 0.10 0.10 97 1008.3
20260506012111 15 217 0.0 0.0 0.13 0.10 0.10 96 1008.2
20260506011604 15 218 0.0 0.0 0.13 0.10 0.10 96 1008.2
20260506011059 15 218 0.0 0.0 0.00 0.08 0.08 95 1008.2
20260506010554 15 202 3.2 3.2 0.00 0.08 0.08 95 1008.2
20260506010050 15 253 0.0 0.0 0.00 0.08 0.08 94 1008.3
20260506005547 15 250 3.2 3.2 0.00 0.08 0.08 94 1008.2
20260506005043 15 234 3.2 3.2 0.00 0.08 0.08 94 1007.9
20260506004541 15 232 3.2 4.8 0.00 0.08 0.08 93 1008.0
20260506004037 16 229 4.8 4.8 0.00 0.08 0.08 93 1008.0
20260506003534 15 233 4.8 6.4 0.00 0.08 0.08 93 1008.0
20260506003030 16 241 4.8 6.4 0.00 0.08 0.08 93 1008.4
20260506002526 15 246 8.0 9.7 0.00 0.08 0.08 93 1008.5
20260506002022 15 258 9.7 9.7 0.00 0.08 0.08 94 1008.5
20260506001518 15 254 9.7 9.7 0.00 0.08 0.08 94 1008.7
20260506001016 15 261 12.9 14.5 0.00 0.08 0.08 95 1008.7
20260506000514 15 275 6.4 6.4 0.00 0.08 0.08 94 1008.8
20260506000011 15 274 8.0 11.3 0.00 0.08 0.08 94 1008.9
20260505235509 15 283 9.7 11.3 0.00 0.08 0.08 95 1008.6
20260505235004 15 253 8.0 9.7 0.00 0.08 0.08 95 1008.6
20260505234502 15 257 4.8 4.8 0.00 0.08 0.08 96 1008.6
20260505233959 15 270 6.4 6.4 0.00 0.08 0.08 96 1008.5
20260505233456 15 269 6.4 6.4 0.00 0.08 0.08 96 1008.6
20260505232953 15 255 4.8 4.8 0.00 0.08 0.08 96 1008.7
20260505232451 15 243 4.8 4.8 0.00 0.08 0.08 96 1008.7
20260505231948 15 271 4.8 4.8 0.00 0.08 0.08 96 1008.9
20260505231446 15 242 6.4 6.4 0.00 0.08 0.08 96 1009.0
20260505230944 15 279 9.7 11.3 0.00 0.08 0.08 96 1009.1
20260505230441 15 258 6.4 6.4 0.00 0.08 0.08 96 1009.0
20260505225937 15 253 9.7 11.3 0.00 0.08 0.08 96 1009.0
20260505225435 15 267 6.4 6.4 0.00 0.08 0.08 95 1009.1
20260505224930 15 262 9.7 11.3 0.18 0.08 0.08 95 1009.1